Location: Allonne
(49.4086°N, 2.1143°E)
Time: 16:38:59
(UTC+00:00)

Cosmos 1606 - Pass Details

Date: 03 February 2023
Orbit: 488 x 509 km, 82.5° (Epoch: 26 March)

Event Time Altitude Azimuth Distance (km) Brightness Sun altitude
Rises 18:32:34 0° 357° (N) 2,655 6.3 -16.8°
Reaches altitude 10° 18:34:52 10° 7° (N) 1,764 5.3 -17.2°
Enters shadow 18:36:54 24° 31° (NNE) 1,109 4.0 -17.5°
